Погода в Мацумото

Япония     36°13′56″N   137°58′01″E
темп.,
°C
ветер,
м/с
пор.,
м/с
влажн.,
%
обл.,
%
осадки,
мм/ч
давл.,
гПа
погр.,
м
25 февраля, чт
чт2500:00−6с23802 0.0 1027269
03:00−6ссз12774 0.0 1026234
06:00−7с017453 0.0 1027170
09:00−3с114776 0.0 1026336
12:00+3с22236 0.0 1025693
15:00+4с223018 0.0 1022557
18:00−1св015489 0.0 102428
21:00−1ю115194 0.0 102326
26 февраля, пт
пт2600:00−2ююз125537 0.1 102427
03:00−1зсз115368 0.1 102324
06:00−2ссз005979 0.0 102422
09:000с225890 0.0 1024312
12:00+4с2352100 0.0 1023761
15:00+3с3466100 0.0 1021692
18:00−1с2387100 0.0 1023148
21:00−3с2391100 0.0 1023180
27 февраля, сб
сб2700:00−4ссз2386100 0.0 1024231
03:00−5ссз2390100 0.0 1024247
06:00−5ссз2490100 0.0 1026336
09:00−3с3468100 0.1 1028603
12:00+1с344569 0.0 1028743
15:00+1с345534 0.0 1027698
18:00−4с23770 0.0 1030143
21:00−5юв00820 0.0 103490
28 февраля, вс
вс2800:00−4юв11740 0.0 103460
03:00−3юв12650 0.0 103442
06:00−3ююв22680 0.0 103545
09:00+3ююв12460 0.0 1035353
12:00+10св02290 0.0 1033677
15:00+11св12270 0.0 1032962
18:00+3св12580 0.0 103464
21:00+1ююв22720 0.0 103543
1 марта, пн
пн100:000ю23815 0.0 103380
03:000ю357653 0.0 1032173
06:00−1ю34720 0.0 1031136
09:00+4ю245733 0.0 1030354
12:00+11ю244566 0.0 10271190
15:00+11ююз244683 0.0 10251337
18:00+6ю2371100 0.0 1024175
21:00+4ю3583100 0.0 1023161